1507233600.78,29102,13.25,72354.8,-0.77,-2.39,-2.43,0,*65
1507233601.99,29103,13.25,72358.8,-0.75,-2.39,-2.39,0,*6B
1507233603.23,29104,13.25,72332.8,-0.77,-2.51,-2.55,0,*6A
1507233604.45,29105,13.25,72344.0,-0.75,-2.35,-2.35,0,*6D
1507233605.66,29106,13.25,72318.0,-0.75,-2.35,-2.35,0,*6E
1507233606.91,29107,13.25,72352.5,-0.77,-2.51,-2.51,0,*6D
1507233608.12,29108,13.25,72322.3,-0.77,-2.55,-2.43,0,*65
1507233609.33,29109,13.25,72324.3,-0.77,-2.51,-2.43,0,*60
1507233610.6,29110,13.25,72302.8,-0.75,-2.51,-2.51,0,*69
1507233611.85,29111,13.25,72282.0,-0.77,-2.51,-2.51,0,*6A
1507233613.03,29112,13.25,72328.8,-0.77,-2.35,-2.27,0,*6A
1507233614.22,29113,13.25,72374.8,-0.77,-2.27,-2.35,0,*6B
1507233615.4,29114,13.25,72388.5,-0.77,-2.35,-2.27,0,*6C
1507233616.59,29115,13.25,72394.0,-0.77,-2.27,-2.15,0,*6F
1507233617.8,29116,13.25,72396.5,-0.77,-2.23,-2.11,0,*6C
1507233618.99,29117,13.25,72394.5,-0.77,-2.23,-2.15,0,*69
1507233620.18,29118,13.25,72384.3,-0.77,-2.23,-2.23,0,*63
1507233621.45,29119,13.25,72378.0,-0.75,-2.11,-2.11,0,*60
1507233622.67,29120,13.25,72372.3,-0.75,-2.19,-2.19,0,*6A
1507233623.91,29121,13.25,72386.0,-0.75,-2.19,-2.07,0,*64
1507233625.15,29122,13.25,72392.8,-0.75,-2.19,-2.11,0,*60
1507233626.39,29123,13.25,72400.8,-0.75,-2.19,-2.11,0,*61
1507233627.6,29124,13.25,72408.8,-0.77,-2.15,-2.11,0,*68
1507233628.79,29125,13.25,72408.0,-0.77,-2.23,-2.15,0,*68
1507233630.01,29126,13.25,72398.3,-0.75,-2.19,-2.31,0,*66
1507233631.2,29127,13.25,72410.8,-0.77,-2.15,-2.35,0,*6D
1507233632.41,29128,13.25,72406.5,-0.75,-2.19,-2.23,0,*6B
1507233633.63,29129,13.25,72402.5,-0.75,-2.19,-2.23,0,*6A
1507233634.85,29130,13.25,72420.8,-0.75,-2.19,-2.23,0,*62
1507233636.07,29131,13.25,72408.8,-0.75,-2.31,-2.23,0,*69
1507233637.31,29132,13.31,72408.3,-0.75,-2.51,-2.39,0,*67
1507233638.58,29133,13.25,72388.0,-0.75,-2.71,-2.51,0,*6A
1507233639.8,29134,13.25,72404.5,-0.77,-2.67,-2.35,0,*6A
1507233641.01,29135,13.25,72396.3,-0.77,-2.63,-2.27,0,*6C
1507233642.26,29136,13.25,72392.8,-0.75,-2.51,-2.23,0,*68
1507233643.5,29137,13.25,72400.0,-0.75,-2.71,-2.39,0,*60
1507233644.74,29138,13.25,72406.0,-0.77,-2.55,-2.55,0,*61
1507233645.95,29139,13.25,72426.0,-0.77,-2.43,-2.55,0,*67
1507233647.17,29140,13.25,72422.3,-0.77,-2.51,-2.87,0,*65
1507233648.38,29141,13.25,72400.5,-0.77,-2.75,-3.03,0,*6F
1507233649.57,29142,13.25,72394.8,-0.77,-2.87,-3.15,0,*66
1507233650.75,29143,13.25,72392.3,-0.77,-3.03,-3.11,0,*6E
1507233651.94,29144,13.25,72382.8,-0.77,-3.03,-3.11,0,*69
1507233653.13,29145,13.25,72346.0,-0.77,-3.15,-3.11,0,*6F
1507233654.37,29146,13.25,72348.3,-0.79,-3.55,-3.27,0,*63
1507233655.61,29147,13.25,72364.3,-0.79,-3.67,-3.31,0,*64
1507233656.86,29148,13.25,72350.3,-0.79,-3.67,-3.27,0,*6C
1507233658.08,29149,13.25,72338.5,-0.79,-3.87,-3.27,0,*63
1507233659.27,29150,13.25,72336.5,-0.77,-3.79,-3.11,0,*61
1507233660.47,29151,13.25,72340.8,-0.77,-3.79,-3.03,0,*63
1507233661.7,29152,13.25,72328.3,-0.77,-3.75,-2.75,0,*6C
1507233662.97,29153,13.25,72338.5,-0.79,-3.63,-2.67,0,*67
1507233664.24,29154,13.25,72336.0,-0.79,-3.55,-2.63,0,*61
1507233665.49,29155,13.25,72360.3,-0.79,-3.31,-2.51,0,*63
1507233666.71,29156,13.25,72380.5,-0.79,-3.03,-2.39,0,*6F
1507233667.95,29157,13.25,72380.3,-0.79,-2.75,-2.35,0,*62
1507233669.19,29158,13.25,72396.8,-0.79,-2.55,-2.35,0,*6F
1507233670.46,29159,13.25,72392.8,-0.79,-2.67,-2.55,0,*69
1507233671.73,29160,13.25,72392.8,-0.79,-2.63,-2.63,0,*62
1507233673.0,29161,13.25,72396.3,-0.75,-2.51,-2.63,0,*6E
1507233674.25,29162,13.25,72412.8,-0.77,-2.55,-2.63,0,*6B
1507233675.49,29163,13.25,72410.3,-0.77,-2.55,-2.67,0,*6E
1507233676.73,29164,13.25,72356.5,-0.77,-2.51,-2.55,0,*6C
1507233677.94,29165,13.25,72380.8,-0.77,-2.67,-2.79,0,*66
1507233679.15,29166,13.25,72392.8,-0.77,-2.75,-2.79,0,*66
1507233680.39,29167,13.25,72394.0,-0.77,-2.75,-2.75,0,*6B
1507233681.61,29168,13.25,72388.3,-0.77,-2.79,-2.75,0,*68
1507233682.8,29169,13.25,72406.3,-0.77,-2.87,-2.79,0,*64
1507233683.98,29170,13.25,72422.5,-0.77,-2.99,-2.91,0,*65
1507233685.17,29171,13.25,72420.3,-0.77,-2.99,-2.79,0,*62
1507233686.41,29172,13.25,72432.0,-0.75,-2.87,-2.63,0,*67
1507233687.67,29173,13.25,72418.8,-0.75,-2.95,-2.63,0,*65
1507233688.88,29174,13.25,72424.5,-0.77,-2.87,-2.51,0,*62
1507233690.13,29175,13.25,72440.0,-0.75,-2.83,-2.47,0,*62
1507233691.34,29176,13.25,72438.8,-0.77,-2.75,-2.43,0,*6E
1507233692.58,29177,13.25,72432.0,-0.75,-2.63,-2.39,0,*67
1507233693.8,29178,13.25,72432.8,-0.77,-2.63,-2.39,0,*6A
1507233695.02,29179,13.25,72440.3,-0.77,-2.63,-2.43,0,*66
1507233696.23,29180,13.25,72422.5,-0.77,-2.63,-2.43,0,*60
1507233697.47,29181,13.25,72418.3,-0.75,-2.59,-2.35,0,*6B
1507233698.68,29182,13.25,72414.8,-0.77,-2.51,-2.27,0,*61
1507233699.93,29183,13.25,72412.0,-0.75,-2.47,-2.23,0,*61
1507233701.15,29184,13.25,72412.5,-0.75,-2.39,-2.23,0,*6F
1507233702.36,29185,13.25,72406.5,-0.75,-2.39,-2.23,0,*6E
1507233703.61,29186,13.25,72402.5,-0.75,-2.51,-2.31,0,*60
1507233704.85,29187,13.25,72402.5,-0.75,-2.51,-2.31,0,*61
1507233706.1,29188,13.25,72402.3,-0.75,-2.51,-2.31,0,*6E
1507233707.31,29189,13.25,72400.5,-0.75,-2.39,-2.23,0,*62
1507233708.53,29190,13.25,72398.0,-0.75,-2.35,-2.23,0,*66
1507233709.75,29191,13.25,72398.5,-0.75,-2.31,-2.23,0,*63
1507233710.97,29192,13.25,72404.3,-0.75,-2.31,-2.23,0,*60
1507233712.18,29193,13.25,72406.0,-0.75,-2.23,-2.19,0,*6B
1507233713.4,29194,13.25,72402.8,-0.75,-2.31,-2.19,0,*6F
1507233714.61,29195,13.25,72408.3,-0.75,-2.23,-2.19,0,*6D
1507233715.8,29196,13.25,72408.3,-0.73,-2.23,-2.19,0,*68
1507233717.01,29197,13.25,72410.8,-0.75,-2.23,-2.19,0,*6F
1507233718.25,29198,13.25,72422.5,-0.75,-2.23,-2.11,0,*68
1507233719.47,29199,13.25,72416.5,-0.75,-2.31,-2.19,0,*62
1507233720.68,29200,13.25,72416.5,-0.73,-2.23,-2.11,0,*6C
1507233721.9,29201,13.25,72420.8,-0.75,-2.23,-2.19,0,*63
1507233723.14,29202,13.25,72420.5,-0.75,-2.23,-2.11,0,*68
1507233724.38,29203,13.25,72422.8,-0.75,-2.19,-2.07,0,*67
1507233725.65,29204,13.25,72422.3,-0.75,-2.11,-1.99,0,*6C
1507233726.9,29205,13.25,72424.3,-0.73,-1.99,-1.99,0,*68
1507233728.16,29206,13.25,72432.3,-0.75,-2.07,-1.95,0,*65
1507233729.41,29207,13.25,72436.0,-0.75,-2.19,-2.07,0,*63
1507233730.62,29208,13.25,72432.3,-0.73,-2.19,-2.11,0,*6D
1507233731.8,29209,13.25,72434.0,-0.73,-2.19,-2.19,0,*64
1507233733.01,29210,13.25,72428.8,-0.71,-2.15,-2.15,0,*6E
1507233734.22,29211,13.25,72424.5,-0.71,-2.15,-2.15,0,*6F
1507233735.41,29212,13.25,72428.3,-0.73,-2.19,-2.19,0,*6E
1507233736.62,29213,13.25,72420.8,-0.73,-2.19,-2.11,0,*67
1507233737.89,29214,13.25,72402.0,-0.75,-1.99,-1.99,0,*6E
1507233739.17,29215,13.25,72394.5,-0.75,-2.07,-2.07,0,*6F
1507233740.44,29216,13.25,72400.0,-0.75,-2.07,-2.07,0,*6C
1507233741.65,29217,13.25,72406.5,-0.73,-2.19,-2.07,0,*64
1507233742.9,29218,13.25,72412.3,-0.73,-1.99,-2.07,0,*60
1507233744.14,29219,13.25,72412.8,-0.73,-1.99,-1.99,0,*65
1507233745.38,29220,13.25,72412.8,-0.73,-1.95,-1.87,0,*6C
1507233746.61,29221,13.25,72408.5,-0.73,-1.95,-1.87,0,*6D
1507233747.88,29222,13.25,72392.0,-0.71,-1.83,-1.83,0,*6F
1507233749.11,29223,13.25,72358.5,-0.73,-1.95,-1.95,0,*6C
1507233750.37,29224,13.25,72352.8,-0.71,-1.91,-1.91,0,*69
1507233751.61,29225,13.25,72362.0,-0.73,-1.87,-1.87,0,*6A
1507233752.84,29226,13.25,72382.5,-0.73,-1.95,-1.87,0,*6A
1507233754.08,29227,13.25,72376.8,-0.73,-1.95,-1.87,0,*6B
1507233755.32,29228,13.25,72376.5,-0.73,-1.83,-1.87,0,*63
1507233756.58,29229,13.25,72390.8,-0.71,-1.91,-1.83,0,*67
1507233757.82,29230,13.25,72418.5,-0.73,-1.99,-1.95,0,*62
1507233759.05,29231,13.25,72422.5,-0.73,-1.95,-1.99,0,*63
1507233760.29,29232,13.25,72428.8,-0.73,-1.95,-1.99,0,*60
1507233761.53,29233,13.25,72434.0,-0.73,-1.87,-1.87,0,*6D
1507233762.79,29234,13.25,72434.3,-0.71,-1.91,-1.91,0,*68
1507233764.06,29235,13.25,72432.3,-0.71,-1.91,-1.91,0,*69
1507233765.32,29236,13.25,72434.5,-0.71,-1.83,-1.95,0,*6D
1507233766.58,29237,13.25,72440.3,-0.71,-1.95,-2.03,0,*67
1507233767.81,29238,13.25,72448.0,-0.71,-1.95,-2.15,0,*6F
1507233769.05,29239,13.25,72456.0,-0.71,-1.91,-2.31,0,*6C
1507233770.32,29240,13.25,72466.0,-0.71,-2.03,-2.59,0,*64
1507233771.53,29241,13.25,72466.3,-0.71,-2.27,-3.35,0,*68
1507233772.73,29242,13.25,72466.8,-0.71,-2.91,-4.09,0,*6E
1507233773.95,29243,13.25,72462.8,-0.73,-3.59,-4.37,0,*65
1507233775.2,29244,13.25,72460.3,-0.71,-4.01,-3.95,0,*65
1507233776.44,29245,13.25,72460.3,-0.71,-4.01,-3.27,0,*6D
1507233777.68,29246,13.25,72460.3,-0.71,-3.67,-3.03,0,*6F
1507233778.91,29247,13.25,72454.3,-0.71,-3.55,-3.23,0,*6D
1507233780.14,29248,13.25,72454.5,-0.71,-3.67,-3.31,0,*60
1507233781.38,29249,13.25,72444.5,-0.71,-3.67,-3.11,0,*63
1507233782.61,29250,13.25,72436.5,-0.71,-3.67,-3.19,0,*63
1507233783.82,29251,13.25,72434.0,-0.73,-3.71,-3.15,0,*6B
1507233785.02,29252,13.25,72424.8,-0.73,-3.83,-2.99,0,*60
1507233786.26,29253,13.25,72434.0,-0.73,-3.59,-2.71,0,*60
1507233787.51,29254,13.25,72432.3,-0.73,-3.47,-2.75,0,*6C
1507233788.72,29255,13.25,72436.5,-0.73,-3.39,-2.75,0,*64
1507233789.94,29256,13.25,72438.0,-0.73,-3.47,-2.83,0,*67
1507233791.12,29257,13.25,72440.5,-0.73,-3.39,-2.87,0,*6B
1507233792.34,29258,13.25,72440.3,-0.73,-3.47,-2.83,0,*69
1507233793.58,29259,13.25,72434.3,-0.73,-3.51,-2.75,0,*66
1507233794.83,29260,13.25,72430.5,-0.75,-3.39,-2.63,0,*63
1507233796.07,29261,13.25,72434.5,-0.75,-3.23,-2.47,0,*6F
1507233797.32,29262,13.25,72420.3,-0.75,-3.15,-2.51,0,*6E
1507233798.57,29263,13.25,72416.3,-0.75,-3.07,-2.47,0,*6B
1507233799.81,29264,13.25,72436.8,-0.75,-2.75,-2.23,0,*6A
1507233801.05,29265,13.25,72442.5,-0.75,-2.59,-2.23,0,*65
1507233802.29,29266,13.25,72450.5,-0.75,-2.47,-2.19,0,*60
1507233803.54,29267,13.25,72446.5,-0.75,-2.31,-2.11,0,*68
1507233804.75,29268,13.25,72430.0,-0.75,-2.23,-2.19,0,*6C
1507233805.97,29269,13.25,72436.3,-0.75,-2.23,-2.19,0,*6D
1507233807.18,29270,13.25,72438.0,-0.75,-2.23,-2.19,0,*65
1507233808.39,29271,13.25,72436.5,-0.75,-2.23,-2.19,0,*64
1507233809.61,29272,13.25,72450.0,-0.75,-2.23,-2.19,0,*67
1507233810.88,29273,13.25,72450.5,-0.75,-2.11,-2.11,0,*6F
1507233812.09,29274,13.25,72448.3,-0.75,-2.19,-2.19,0,*68
1507233813.31,29275,13.25,72450.0,-0.75,-2.19,-2.19,0,*69
1507233814.52,29276,13.25,72454.8,-0.75,-2.23,-2.23,0,*6A
1507233815.75,29277,13.25,72436.5,-0.75,-2.31,-2.31,0,*6B
1507233816.97,29278,13.25,72432.5,-0.75,-2.31,-2.23,0,*67
1507233818.18,29279,13.25,72426.0,-0.75,-2.23,-2.23,0,*65
1507233819.37,29280,13.25,72432.3,-0.77,-2.27,-2.23,0,*65
1507233820.59,29281,13.25,72420.5,-0.75,-2.23,-2.19,0,*6B
1507233821.8,29282,13.25,72412.3,-0.75,-2.23,-2.19,0,*68
1507233823.02,29283,13.25,72414.8,-0.75,-2.31,-2.39,0,*68
1507233824.2,29284,13.25,72394.3,-0.77,-2.35,-2.43,0,*64
1507233825.42,29285,13.25,72412.3,-0.75,-2.23,-2.35,0,*61
1507233826.64,29286,13.25,72426.0,-0.75,-2.31,-2.39,0,*6D
1507233827.85,29287,13.25,72416.5,-0.77,-2.43,-2.51,0,*65
1507233829.07,29288,13.25,72440.8,-0.75,-2.39,-2.35,0,*67
1507233830.31,29289,13.25,72390.5,-0.75,-2.51,-2.39,0,*64
1507233831.52,29290,13.25,72390.0,-0.77,-2.79,-2.63,0,*6B
1507233832.8,29291,13.25,72404.0,-0.75,-2.63,-2.47,0,*65
1507233834.02,29292,13.25,72386.8,-0.77,-2.63,-2.39,0,*6D
1507233835.23,29293,13.25,72402.3,-0.77,-2.55,-2.39,0,*69
1507233836.45,29294,13.25,72406.0,-0.77,-2.51,-2.35,0,*66
1507233837.66,29295,13.25,72426.8,-0.77,-2.51,-2.35,0,*67
1507233838.85,29296,13.25,72410.3,-0.77,-2.39,-2.23,0,*6D
1507233840.03,29297,13.25,72420.5,-0.77,-2.39,-2.27,0,*68
1507233841.22,29298,13.25,72424.5,-0.77,-2.27,-2.27,0,*68
1507233842.41,29299,13.25,72424.5,-0.77,-2.27,-2.23,0,*6D
1507233843.59,29300,13.25,72426.0,-0.77,-2.35,-2.35,0,*68
1507233844.78,29301,13.25,72440.5,-0.77,-2.27,-2.27,0,*69
1507233845.99,29302,13.25,72434.5,-0.79,-2.23,-2.35,0,*63
1507233847.23,29303,13.25,72434.8,-0.75,-2.23,-2.47,0,*6B
1507233848.45,29304,13.25,72430.3,-0.77,-2.39,-2.67,0,*67
1507233849.66,29305,13.25,72424.8,-0.77,-2.75,-3.03,0,*6D
1507233850.87,29306,13.25,72434.0,-0.75,-3.11,-3.23,0,*6D
1507233852.06,29307,13.25,72438.3,-0.77,-3.31,-3.19,0,*65
1507233853.25,29308,13.25,72434.5,-0.77,-3.39,-3.11,0,*6A
1507233854.46,29309,13.25,72432.3,-0.77,-3.55,-3.03,0,*62
1507233855.68,29310,13.25,72432.5,-0.77,-3.63,-3.03,0,*6F
1507233856.89,29311,13.25,72428.8,-0.77,-3.63,-2.91,0,*64
1507233858.09,29312,13.25,72422.8,-0.77,-3.75,-2.91,0,*60
1507233859.36,29313,13.25,72430.8,-0.79,-4.01,-2.75,0,*61
1507233860.61,29314,13.25,72434.0,-0.79,-4.17,-2.63,0,*66
1507233861.83,29315,13.25,72432.8,-0.77,-4.17,-2.51,0,*68
1507233863.09,29316,13.25,72438.3,-0.79,-3.79,-2.51,0,*6A
1507233864.31,29317,13.25,72440.8,-0.77,-3.39,-2.55,0,*65
1507233865.52,29318,13.25,72444.3,-0.77,-3.11,-2.55,0,*60
1507233866.74,29319,13.25,72446.8,-0.77,-2.87,-2.67,0,*6E
1507233867.95,29320,13.25,72448.3,-0.77,-2.75,-2.91,0,*60
1507233869.13,29321,13.25,72450.8,-0.77,-2.87,-3.15,0,*61
1507233870.34,29322,13.25,72466.0,-0.77,-3.19,-3.71,0,*66
1507233871.55,29323,13.25,72462.5,-0.77,-3.67,-4.45,0,*6E
1507233872.79,29324,13.25,72454.0,-0.75,-4.29,-4.93,0,*6D
1507233874.03,29325,13.25,72446.3,-0.77,-4.93,-5.23,0,*65
1507233875.28,29326,13.25,72428.5,-0.75,-5.55,-5.31,0,*6C
1507233876.5,29327,13.25,72428.5,-0.77,-6.01,-5.31,0,*6D
1507233877.76,29328,13.25,72420.3,-0.75,-6.35,-5.07,0,*62
1507233878.98,29329,13.25,72424.3,-0.75,-6.43,-4.53,0,*62
1507233880.19,29330,13.25,72408.3,-0.75,-6.47,-4.29,0,*63
1507233881.41,29331,13.25,72404.3,-0.75,-6.43,-3.75,0,*68
1507233882.63,29332,13.25,72406.5,-0.77,-5.85,-3.31,0,*60
1507233883.82,29333,13.25,72392.5,-0.77,-5.35,-3.03,0,*6B
1507233885.03,29334,13.25,72374.3,-0.77,-4.81,-2.99,0,*60
1507233886.25,29335,13.25,72362.0,-0.77,-4.29,-2.75,0,*61
1507233887.47,29336,13.25,72376.8,-0.77,-3.79,-2.63,0,*67
1507233888.74,29337,13.25,72388.0,-0.75,-3.71,-2.63,0,*6C
1507233889.97,29338,13.19,72404.3,-0.77,-3.75,-2.75,0,*62
1507233891.2,29339,13.25,72424.0,-0.77,-3.83,-2.71,0,*6E
1507233892.42,29340,13.25,72426.3,-0.77,-3.75,-2.67,0,*6E
1507233893.7,29341,13.25,72428.8,-0.75,-3.51,-2.51,0,*6E
1507233894.92,29342,13.25,72436.8,-0.77,-3.39,-2.55,0,*65
1507233896.16,29343,13.25,72432.5,-0.75,-3.23,-2.51,0,*69
1507233897.41,29344,13.25,72450.0,-0.75,-3.15,-2.47,0,*6C
1507233898.6,29345,13.25,72454.8,-0.77,-2.99,-2.43,0,*6E
1507233899.81,29346,13.25,72466.3,-0.77,-2.91,-2.55,0,*62
1507233901.05,29347,13.25,72462.8,-0.75,-2.83,-2.47,0,*61
1507233902.3,29348,13.25,72472.8,-0.77,-2.75,-2.51,0,*62
1507233903.54,29349,13.25,72464.3,-0.77,-2.67,-2.51,0,*60
1507233904.79,29350,13.25,72466.0,-0.77,-2.63,-2.51,0,*6C
1507233906.0,29351,13.25,72474.5,-0.77,-2.55,-2.43,0,*6B
1507233907.27,29352,13.25,72470.0,-0.75,-2.59,-2.47,0,*62
1507233908.51,29353,13.25,72458.5,-0.75,-2.47,-2.35,0,*69
1507233909.76,29354,13.19,72448.5,-0.75,-2.51,-2.31,0,*6D
1507233911.0,29355,13.19,72436.3,-0.75,-2.51,-2.35,0,*68
1507233912.21,29356,13.25,72442.3,-0.77,-2.55,-2.27,0,*6E
1507233913.4,29357,13.25,72440.5,-0.77,-2.43,-2.27,0,*68
1507233914.64,29358,13.25,72458.3,-0.75,-2.51,-2.31,0,*61
1507233915.89,29359,13.25,72470.3,-0.75,-2.51,-2.23,0,*63
1507233917.1,29360,13.25,72488.0,-0.75,-2.35,-2.23,0,*6B
1507233918.32,29361,13.25,72478.0,-0.75,-2.31,-2.23,0,*6E
1507233919.51,29362,13.19,72458.8,-0.77,-2.27,-2.27,0,*6C
1507233920.72,29363,13.25,72458.0,-0.75,-2.23,-2.23,0,*6F
1507233921.91,29364,13.25,72450.5,-0.77,-2.23,-2.23,0,*6A
1507233923.13,29365,13.25,72446.5,-0.75,-2.31,-2.19,0,*63
1507233924.35,29366,13.25,72434.8,-0.75,-2.31,-2.23,0,*69
1507233925.54,29367,13.25,72436.0,-0.77,-2.27,-2.27,0,*69
1507233926.75,29368,13.25,72448.5,-0.75,-2.23,-2.23,0,*64
1507233927.97,29369,13.25,72456.8,-0.75,-2.23,-2.23,0,*65
1507233929.16,29370,13.25,72462.5,-0.77,-2.19,-2.19,0,*6F
1507233930.34,29371,13.25,72458.0,-0.77,-2.19,-2.19,0,*6E
1507233931.53,29372,13.25,72454.3,-0.77,-2.23,-2.15,0,*68
1507233932.77,29373,13.25,72448.8,-0.75,-2.19,-2.11,0,*66
1507233934.05,29374,13.25,72452.8,-0.75,-2.11,-1.99,0,*6A
1507233935.29,29375,13.25,72454.0,-0.77,-2.11,-2.03,0,*69
1507233936.56,29376,13.25,72456.8,-0.75,-2.07,-2.07,0,*6B
1507233937.84,29377,13.25,72460.8,-0.75,-2.11,-1.99,0,*69
1507233939.11,29378,13.25,72470.0,-0.75,-2.07,-1.99,0,*61
1507233940.39,29379,13.25,72466.0,-0.75,-1.99,-2.07,0,*60
1507233941.66,29380,13.25,72468.0,-0.75,-2.11,-2.07,0,*65
1507233942.94,29381,13.25,72464.0,-0.75,-2.11,-2.07,0,*64
1507233944.2,29382,13.25,72466.3,-0.75,-2.07,-2.11,0,*67
1507233945.48,29383,13.25,72464.0,-0.75,-2.11,-1.99,0,*62
1507233946.75,29384,13.25,72466.8,-0.75,-2.11,-2.11,0,*66
1507233947.99,29385,13.25,72462.0,-0.73,-2.11,-2.11,0,*61
1507233949.24,29386,13.25,72460.5,-0.73,-2.11,-2.07,0,*65
1507233950.48,29387,13.25,72460.0,-0.73,-2.07,-1.99,0,*67
1507233951.71,29388,13.25,72462.8,-0.73,-2.07,-1.95,0,*64
1507233952.96,29389,13.25,72464.3,-0.73,-1.99,-1.87,0,*62
1507233954.2,29390,13.25,72466.0,-0.73,-1.99,-1.87,0,*6A
1507233955.41,29391,13.19,72468.0,-0.73,-1.59,-1.43,0,*6F
1507233956.59,29392,13.25,72468.5,-0.73,-1.59,-1.51,0,*6F
1507233957.79,29393,13.25,72468.8,-0.71,-1.59,-1.55,0,*68
1507233959.0,29394,13.25,72466.8,-0.71,-1.67,-1.59,0,*6E
1507233960.23,29395,13.25,72464.3,-0.71,-1.71,-1.67,0,*65
1507233961.49,29396,13.25,72458.8,-0.71,-1.91,-1.91,0,*61
1507233962.74,29397,13.25,72452.5,-0.71,-1.95,-1.95,0,*60
1507233963.98,29398,13.25,72452.0,-0.73,-2.07,-2.07,0,*6D
1507233965.25,29399,13.25,72450.0,-0.71,-2.03,-2.03,0,*6E
1507233966.51,29400,13.19,72444.5,-0.71,-1.95,-1.95,0,*69
1507233967.77,29401,13.25,72454.3,-0.71,-1.91,-1.91,0,*68
1507233969.01,29402,13.25,72452.5,-0.73,-2.07,-2.07,0,*69
1507233970.27,29403,13.25,72450.0,-0.71,-1.91,-1.91,0,*6A
1507233971.53,29404,13.25,72456.0,-0.71,-1.91,-1.91,0,*6D
1507233972.79,29405,13.25,72464.0,-0.71,-1.95,-1.95,0,*6C
1507233974.0,29406,13.25,72474.0,-0.71,-2.27,-2.15,0,*6E
1507233975.21,29407,13.19,72470.8,-0.71,-2.27,-2.19,0,*63
1507233976.42,29408,13.25,72464.3,-0.71,-2.19,-2.19,0,*61
1507233977.61,29409,13.25,72462.8,-0.73,-2.23,-2.23,0,*62
1507233978.79,29410,13.25,72466.5,-0.73,-2.23,-2.19,0,*63
1507233980.03,29411,13.25,72472.5,-0.71,-2.15,-2.07,0,*6A
1507233981.3,29412,13.19,72470.0,-0.71,-2.07,-2.03,0,*6E
1507233982.54,29413,13.25,72474.3,-0.73,-2.07,-1.99,0,*6D
1507233983.77,29414,13.19,72472.8,-0.73,-1.95,-1.95,0,*6E
1507233985.02,29415,13.25,72476.0,-0.73,-1.99,-1.99,0,*6F
1507233986.26,29416,13.25,72474.8,-0.73,-1.99,-1.99,0,*6C
1507233987.53,29417,13.19,72474.0,-0.71,-1.95,-2.03,0,*63
1507233988.74,29418,13.25,72474.5,-0.73,-2.11,-2.19,0,*6A
1507233989.96,29419,13.19,72468.5,-0.73,-2.11,-2.19,0,*6B
1507233991.17,29420,13.25,72464.3,-0.73,-2.07,-2.19,0,*66
1507233992.41,29421,13.25,72452.8,-0.73,-2.11,-2.11,0,*68
1507233993.6,29422,13.19,72454.8,-0.73,-2.19,-2.19,0,*6B
1507233994.81,29423,13.25,72456.0,-0.71,-2.19,-2.19,0,*68
1507233996.0,29424,13.25,72458.8,-0.73,-2.31,-2.31,0,*6D
1507233997.19,29425,13.25,72454.8,-0.73,-2.23,-2.23,0,*6C
1507233998.37,29426,13.25,72448.5,-0.73,-2.23,-2.19,0,*66
1507233999.56,29427,13.25,72448.5,-0.73,-2.23,-2.19,0,*67
1507234000.74,29428,13.25,72450.5,-0.73,-2.23,-2.19,0,*68
1507234001.95,29429,13.25,72454.5,-0.73,-2.23,-2.11,0,*61
1507234003.16,29430,13.25,72452.3,-0.73,-2.19,-2.11,0,*60
1507234004.4,29431,13.25,72450.3,-0.73,-2.11,-2.11,0,*69
1507234005.62,29432,13.25,72450.0,-0.73,-2.19,-2.11,0,*62
1507234006.82,29433,13.25,72450.5,-0.73,-2.19,-2.11,0,*63
1507234008.04,29434,13.25,72446.5,-0.75,-2.31,-2.23,0,*69
1507234009.26,29435,13.25,72448.0,-0.75,-2.23,-2.23,0,*6B
1507234010.54,29436,13.25,72454.3,-0.75,-2.11,-2.07,0,*6F
1507234011.81,29437,13.25,72466.3,-0.75,-2.11,-2.11,0,*69
1507234013.05,29438,13.25,72466.3,-0.77,-2.11,-2.11,0,*64
1507234014.33,29439,13.25,72464.0,-0.75,-2.07,-2.07,0,*67
1507234015.57,29440,13.25,72464.3,-0.77,-2.11,-2.11,0,*6B
1507234016.84,29441,13.25,72450.5,-0.75,-2.07,-2.07,0,*68
1507234018.11,29442,13.25,72452.8,-0.75,-2.11,-2.11,0,*6B
1507234019.39,29443,13.25,72456.8,-0.75,-2.07,-1.99,0,*6E
1507234020.66,29444,13.25,72458.3,-0.75,-2.07,-2.07,0,*6D
1507234021.93,29445,13.25,72462.8,-0.75,-2.07,-2.07,0,*6C
1507234023.2,29446,13.25,72464.0,-0.75,-2.07,-2.07,0,*6F
1507234024.47,29447,13.25,72470.5,-0.75,-2.07,-1.99,0,*6A
1507234025.72,29448,13.25,72470.0,-0.77,-2.03,-1.99,0,*63
1507234026.99,29449,13.25,72464.3,-0.75,-2.07,-1.99,0,*64
1507234028.27,29450,13.19,72470.5,-0.75,-2.07,-2.07,0,*68
1507234029.45,29451,13.25,72470.0,-0.77,-2.15,-2.15,0,*6B
1507234030.67,29452,13.25,72464.5,-0.75,-2.19,-2.19,0,*6A
1507234031.88,29453,13.25,72456.8,-0.75,-2.23,-2.19,0,*62
1507234033.07,29454,13.25,72448.0,-0.77,-2.27,-2.23,0,*6A
1507234034.26,29455,13.25,72420.8,-0.77,-2.15,-2.23,0,*6A
1507234035.51,29456,13.25,72434.3,-0.77,-2.03,-1.99,0,*6C
1507234036.75,29457,13.19,72416.0,-0.77,-1.87,-1.91,0,*6A
1507234038.0,29458,13.19,72410.3,-0.77,-1.99,-1.99,0,*62
1507234039.24,29459,13.25,72408.8,-0.77,-1.91,-1.91,0,*63
1507234040.5,29460,13.25,72448.5,-0.75,-1.95,-1.83,0,*6C
1507234041.74,29461,13.25,72448.0,-0.77,-1.91,-1.99,0,*60
1507234042.98,29462,13.25,72446.8,-0.75,-1.75,-1.83,0,*60
1507234044.25,29463,13.25,72448.5,-0.75,-1.83,-1.87,0,*6C
1507234045.53,29464,13.25,72448.5,-0.75,-1.99,-2.07,0,*6B
1507234046.8,29465,13.19,72400.3,-0.75,-2.11,-1.99,0,*6D
1507234048.07,29466,13.25,72410.0,-0.75,-2.11,-2.11,0,*6D
1507234049.26,29467,13.25,72430.8,-0.77,-2.19,-2.19,0,*6E
1507234050.45,29468,13.25,72444.0,-0.77,-2.23,-2.19,0,*68
1507234051.66,29469,13.25,72452.8,-0.75,-2.35,-2.35,0,*62
1507234052.85,29470,13.19,72438.5,-0.77,-2.43,-2.35,0,*69
1507234054.04,29471,13.19,72440.0,-0.77,-2.39,-2.35,0,*65
1507234055.22,29472,13.25,72444.3,-0.77,-2.27,-2.27,0,*6A
1507234056.46,29473,13.25,72440.3,-0.75,-2.19,-2.11,0,*61
1507234057.65,29474,13.25,72430.5,-0.77,-2.23,-2.23,0,*6C
1507234058.84,29475,13.25,72426.0,-0.77,-2.23,-2.23,0,*6D
1507234060.02,29476,13.25,72412.3,-0.77,-2.27,-2.27,0,*6E
1507234061.21,29477,13.25,72414.5,-0.77,-2.35,-2.27,0,*6C
1507234062.42,29478,13.25,72426.3,-0.75,-2.23,-2.23,0,*62
1507234063.61,29479,13.25,72432.3,-0.77,-2.27,-2.27,0,*61
1507234064.79,29480,13.25,72424.5,-0.77,-2.35,-2.27,0,*64
1507234065.98,29481,13.25,72398.0,-0.77,-2.27,-2.35,0,*65
1507234067.16,29482,13.25,72404.8,-0.77,-2.27,-2.27,0,*65
1507234068.35,29483,13.25,72418.0,-0.77,-2.27,-2.27,0,*64
1507234069.53,29484,13.25,72426.0,-0.77,-2.27,-2.27,0,*63
1507234070.74,29485,13.25,72458.3,-0.79,-2.35,-2.27,0,*6F
1507234071.96,29486,13.25,72466.5,-0.79,-2.23,-2.23,0,*6F
1507234073.18,29487,13.25,72446.5,-0.79,-2.23,-2.23,0,*6E
1507234074.37,29488,13.25,72364.3,-0.81,-2.39,-2.39,0,*66
1507234075.58,29489,13.25,72406.5,-0.79,-2.35,-2.39,0,*6C
1507234076.79,29490,13.25,72424.0,-0.79,-2.39,-2.43,0,*65
1507234078.04,29491,13.25,72366.8,-0.81,-2.47,-2.47,0,*6E
1507234079.28,29492,13.25,72360.0,-0.79,-2.43,-2.51,0,*69
1507234080.5,29493,13.25,72416.5,-0.79,-2.39,-2.39,0,*6B
1507234081.71,29494,13.25,72372.3,-0.79,-2.27,-2.39,0,*63
1507234082.92,29495,13.25,72394.0,-0.79,-2.39,-2.43,0,*60
1507234084.1,29496,13.25,72402.5,-0.81,-2.39,-2.43,0,*64
1507234085.35,29497,13.25,72414.3,-0.81,-2.55,-2.59,0,*64
1507234086.53,29498,13.25,72394.8,-0.81,-2.43,-2.43,0,*67
1507234087.78,29499,13.25,72366.5,-0.81,-2.47,-2.55,0,*65
1507234089.02,29500,13.25,72358.5,-0.81,-2.59,-2.59,0,*67
1507234090.26,29501,13.25,72380.0,-0.81,-2.55,-2.59,0,*6A
1507234091.51,29502,13.25,72368.0,-0.81,-2.59,-2.67,0,*68
1507234092.78,29503,13.25,72336.8,-0.79,-2.63,-2.63,0,*63
1507234094.01,29504,13.25,72354.3,-0.81,-2.95,-2.71,0,*69
1507234095.2,29505,13.25,72364.8,-0.81,-3.07,-2.79,0,*6A
1507234096.41,29506,13.25,72368.3,-0.81,-2.91,-2.59,0,*65
1507234097.63,29507,13.25,72388.3,-0.81,-2.67,-2.31,0,*63
1507234098.9,29508,13.25,72396.5,-0.83,-2.59,-2.47,0,*62
1507234100.14,29509,13.25,72410.3,-0.83,-2.67,-2.43,0,*6A
1507234101.41,29510,13.25,72410.3,-0.83,-2.67,-2.47,0,*66
1507234102.68,29511,13.25,72418.0,-0.83,-2.71,-2.55,0,*63
1507234103.93,29512,13.25,72424.3,-0.83,-2.79,-2.59,0,*64
1507234105.2,29513,13.25,72410.5,-0.83,-2.71,-2.55,0,*61
1507234106.45,29514,13.25,72436.8,-0.83,-2.55,-2.31,0,*62
1507234107.67,29515,13.25,72446.5,-0.83,-2.39,-2.31,0,*69